Stations météo

Publicité
Orleans, France (7249): Température de l'air & dewpoint: 10.02.2019 18:00:00 - 16.02.2019 18:00:00 (CET)Orleans, France (7249): Température de l'air 5cm: 10.02.2019 18:00:00 - 16.02.2019 18:00:00 (CET)Orleans, France (7249): Température de l'air -20cm & Température de l'air -100cm: 10.02.2019 18:00:00 - 16.02.2019 18:00:00 (CET)Orleans, France (7249): Vitesse du vent & gusts: 10.02.2019 18:00:00 - 16.02.2019 18:00:00 (CET)Orleans, France (7249): Direction du vent: 10.02.2019 18:00:00 - 16.02.2019 18:00:00 (CET)Orleans, France (7249): reduced air pressure: 10.02.2019 18:00:00 - 16.02.2019 18:00:00 (CET)Orleans, France (7249): visibility: 10.02.2019 18:00:00 - 16.02.2019 18:00:00 (CET)Orleans, France (7249): Ensoleillement: 10.02.2019 18:00:00 - 16.02.2019 18:00:00 (CET)Orleans, France (7249): Quantités de précipitations: 10.02.2019 18:00:00 - 16.02.2019 18:00:00 (CET)
Date & Time tt [°C] td [°C] tt 5cm [°C] tt -20cm [°C] tt -100cm [°C] ff [km/h] ff [knt] fx [km/h] fx [knt] dd ppp [hPa] vv [km] sd [min] rr [mm]
16.02.2019 18:00:00 13,8 4,1 6,9 5,9 7,6 4 2 9 5 SSW 1024,4 45 27 0,0
16.02.2019 17:00:00 16,1 4,2 18,4 5,8 7,6 8 4 16 9 WSW 1024,6 56 60 0,0
16.02.2019 16:00:00 16,0 4,1 18,4 5,6 7,6 10 6 25 14 SW 1025,1 43 60 0,0
16.02.2019 15:00:00 15,4 4,4 18,8 5,5 7,6 17 9 26 14 SSW 1025,7 20 60 0,0
16.02.2019 14:00:00 14,6 5,1 18,7 5,5 7,5 12 7 21 12 SW 1026,5 54 60 0,0
16.02.2019 13:00:00 13,1 5,3 16,4 5,4 7,6 12 7 18 10 SW 1027,1 19 60 0,0
16.02.2019 12:00:00 10,6 3,6 15,3 5,5 7,6 10 5 17 9 SW 1027,8 19 60 0,0
16.02.2019 11:00:00 8,6 2,6 10,1 5,5 7,6 9 5 15 8 S 1027,6 10 60 0,0
16.02.2019 10:00:00 5,1 1,6 2,1 5,6 7,6 9 5 14 8 S 1027,8 12 60 0,0
16.02.2019 09:00:00 2,2 0,3 -2,9 5,7 7,6 8 5 20 11 S 1027,9 9 38 0,0
16.02.2019 08:00:00 0,7 -1,1 -3,5 5,8 7,6 9 5 17 9 SSE 1027,4 9 0 0,0
16.02.2019 07:00:00 1,3 0,1 -4,2 5,8 7,5 11 6 16 8 SSE 1027,1 9 0 0,0
16.02.2019 06:00:00 0,9 0,5 -6,0 5,9 7,5 8 5 13 7 SSE 1027,3 8 0 0,0
16.02.2019 05:00:00 0,1 -0,3 -6,0 6,0 7,6 7 4 8 5 S 1027,2 0,2 0 0,0
16.02.2019 04:00:00 0,3 -0,1 -5,8 6,1 7,6 3 2 8 5 SSE 1027,1 0,1 0 0,0
16.02.2019 03:00:00 0,0 -0,4 -5,4 6,2 7,6 3 1 4 2 S 1027,4 0,2 0 0,0
16.02.2019 02:00:00 -0,7 -1,4 -4,9 6,2 7,6 4 2 8 4 WSW 1027,7 0,1 0 0,0
16.02.2019 01:00:00 0,4 -0,5 -4,6 6,3 7,6 0 0 4 2 N 1027,5 0,1 0 0,0
16.02.2019 00:00:00 1,5 0,6 -4,4 6,4 7,6 0 0 5 3 N 1027,3 4,2 0 0,0
15.02.2019 23:00:00 2,3 1,3 -4,1 6,4 7,6 0 0 3 2 N 1027,2 0,2 0 0,0
15.02.2019 22:00:00 2,9 1,6 -3,8 6,4 7,6 0 0 5 3 N 1027,1 0,1 0 0,0
15.02.2019 21:00:00 4,0 2,7 -3,0 6,3 7,6 3 2 5 3 N 1027,1 3,6 0 0,0
15.02.2019 20:00:00 5,7 2,7 -2,0 6,2 7,6 5 3 6 3 NNE 1027,1 11 0 0,0
15.02.2019 19:00:00 9,3 4,5 1,2 6,1 7,6 5 3 11 6 NNE 1026,9 18 0 0,0
15.02.2019 18:00:00 12,1 5,7 8,5 5,9 7,6 10 5 13 7 NNE 1026,7 17 48 0,0
15.02.2019 17:00:00 14,4 6,7 14,6 5,7 7,6 11 6 14 8 NNE 1026,5 20 51 0,0
15.02.2019 16:00:00 15,9 5,8 22,3 5,6 7,6 7 4 12 7 NNE 1026,7 20 60 0,0
15.02.2019 15:00:00 15,6 3,7 23,2 5,5 7,6 5 3 14 8 ENE 1027,1 18 60 0,0
15.02.2019 14:00:00 15,4 3,2 21,4 5,4 7,6 5 3 9 5 SE 1027,8 13 60 0,0
15.02.2019 13:00:00 13,4 3,5 18,6 5,4 7,6 4 2 8 4 ESE 1028,9 15 60 0,0
15.02.2019 12:00:00 10,9 3,4 14,7 5,5 7,6 4 2 9 5 SE 1029,6 15 60 0,0
15.02.2019 11:00:00 8,2 2,2 9,9 5,5 7,6 4 2 6 4 SSE 1029,8 11 60 0,0
15.02.2019 10:00:00 3,8 1,2 -0,5 5,6 7,6 5 3 8 5 E 1030,2 12 60 0,0
15.02.2019 09:00:00 0,6 -0,6 -5,7 5,7 7,6 7 4 8 5 ENE 1030,3 6 36 0,0
15.02.2019 08:00:00 -0,8 -1,8 -6,3 5,8 7,6 4 2 7 4 ENE 1030,2 6 0 0,0
15.02.2019 07:00:00 -0,4 -1,5 -6,0 5,8 7,6 3 2 7 4 E 1029,8 7 0 0,0
15.02.2019 06:00:00 0,6 -0,1 -5,6 5,9 7,6 3 2 7 4 ESE 1029,7 7 0 0,0
15.02.2019 05:00:00 0,5 -0,4 -5,2 6,0 7,6 0 0 8 4 N 1029,5 6 0 0,0
15.02.2019 04:00:00 0,6 -0,4 -4,9 6,0 7,6 5 3 15 8 E 1029,7 4,9 0 0,0
15.02.2019 03:00:00 1,7 1,0 -3,2 6,1 7,6 5 3 10 6 E 1030,1 6 0 0,0
15.02.2019 02:00:00 1,2 0,5 -2,8 6,1 7,6 8 4 10 5 ENE 1030,3 2,5 0 0,0
15.02.2019 01:00:00 1,8 1,1 -2,6 6,2 7,6 5 3 9 5 E 1030,4 2,9 0 0,0
15.02.2019 00:00:00 2,7 1,7 -0,9 6,2 7,6 5 3 9 5 ENE 1030,3 2,7 0 0,0
14.02.2019 23:00:00 2,9 1,6 -3,3 6,2 7,6 6 3 9 5 ENE 1030,5 3,6 0 0,0
14.02.2019 22:00:00 4,7 2,6 -2,1 6,1 7,6 5 3 8 5 NE 1030,4 7 0 0,0
14.02.2019 21:00:00 5,1 2,8 0,1 6,1 7,6 5 3 9 5 ENE 1030,5 10 0 0,0
14.02.2019 20:00:00 6,4 3,4 2,4 6,0 7,6 5 3 10 6 NE 1030,5 12 0 0,0
14.02.2019 19:00:00 7,1 4,6 4,3 5,9 7,6 9 5 15 8 ENE 1030,3 10 0 0,0
14.02.2019 18:00:00 9,9 6,1 7,5 5,7 7,6 11 6 17 9 NE 1030,1 13 48 0,0
14.02.2019 17:00:00 12,9 5,6 16,6 5,6 7,6 10 5 13 7 NE 1030,2 20 60 0,0
14.02.2019 16:00:00 13,6 4,2 20,0 5,4 7,6 8 4 11 6 NNE 1030,7 18 60 0,0
14.02.2019 15:00:00 13,7 4,8 21,0 5,3 7,6 3 2 11 6 NE 1031,4 19 60 0,0
14.02.2019 14:00:00 11,9 5,3 18,9 5,3 7,6 8 4 13 7 ENE 1032,4 14 60 0,0
14.02.2019 13:00:00 9,9 4,7 15,9 5,3 7,6 8 4 12 7 NE 1033,3 12 60 0,0
14.02.2019 12:00:00 8,8 2,8 12,0 5,3 7,6 4 2 9 5 ESE 1033,9 13 60 0,0
14.02.2019 11:00:00 5,9 2,5 8,0 5,4 7,6 4 2 9 5 E 1033,9 9 60 0,0
14.02.2019 10:00:00 2,5 1,2 -0,6 5,5 7,7 3 2 6 3 ENE 1034,1 6 60 0,0
14.02.2019 09:00:00 0,1 -0,5 -6,1 5,6 7,7 6 3 12 7 E 1034,1 3,4 34 0,0
14.02.2019 08:00:00 -1,5 -2,1 -6,1 5,6 7,6 5 3 7 4 E 1034,0 2,9 0 0,0
14.02.2019 07:00:00 -0,4 -0,8 -5,8 5,7 7,7 5 3 6 3 E 1033,4 2,7 0 0,0
14.02.2019 06:00:00 -0,7 -1,3 -5,9 5,8 7,6 5 3 11 6 ESE 1033,4 1,4 0 0,0
14.02.2019 05:00:00 0,0 -0,6 -4,7 5,8 7,6 7 4 14 8 SE 1033,2 2,8 0 0,0
14.02.2019 04:00:00 -0,4 -1,0 -5,8 5,9 7,7 5 3 8 4 E 1033,4 2,7 0 0,0
14.02.2019 03:00:00 -0,2 -0,8 -3,3 5,9 7,6 6 4 8 4 ENE 1033,9 3,0 0 0,0
14.02.2019 02:00:00 0,7 0,0 -4,0 6,0 7,7 6 4 8 5 ENE 1033,9 4,1 0 0,0
14.02.2019 01:00:00 0,3 -0,6 -4,3 6,0 7,7 5 3 8 4 ENE 1034,0 4,6 0 0,0
14.02.2019 00:00:00 0,8 -0,1 -1,8 6,0 7,7 7 4 10 5 ENE 1034,0 5 0 0,0
13.02.2019 23:00:00 1,8 0,6 -1,8 6,1 7,7 8 4 9 5 NE 1034,2 8 0 0,0
13.02.2019 22:00:00 2,1 0,5 -1,3 6,0 7,7 5 3 11 6 NE 1033,9 12 0 0,0
13.02.2019 21:00:00 4,2 1,4 0,9 6,0 7,7 8 5 17 9 ENE 1033,6 23 0 0,0
13.02.2019 20:00:00 5,1 1,4 2,1 6,0 7,7 13 7 20 11 E 1033,7 29 0 0,0
13.02.2019 19:00:00 6,0 2,1 3,3 5,9 7,7 16 9 23 12 ENE 1033,8 27 0 0,0
13.02.2019 18:00:00 7,2 3,1 5,1 5,8 7,7 18 10 32 18 ENE 1033,3 30 46 0,0
13.02.2019 17:00:00 8,5 4,1 9,7 5,7 7,7 20 11 37 20 NE 1033,4 20 60 0,0
13.02.2019 16:00:00 8,5 4,1 11,2 5,6 7,7 23 12 31 17 NE 1033,5 19 60 0,0
13.02.2019 15:00:00 8,6 4,4 14,1 5,5 7,7 19 10 26 14 NE 1033,7 19 60 0,0
13.02.2019 14:00:00 7,6 4,0 12,3 5,5 7,7 19 10 24 13 NE 1034,3 9 60 0,0
13.02.2019 13:00:00 5,4 3,2 11,9 5,5 7,7 15 8 18 10 NE 1035,4 9 60 0,0
13.02.2019 12:00:00 3,4 2,1 11,9 5,5 7,7 10 5 13 7 NE 1036,2 7 60 0,0
13.02.2019 11:00:00 2,4 1,4 6,0 5,6 7,7 6 4 13 7 NE 1036,3 9 60 0,0
13.02.2019 10:00:00 0,9 0,3 -0,8 5,6 7,6 7 4 9 5 NE 1036,5 6 60 0,0
13.02.2019 09:00:00 -0,8 -1,2 -3,7 5,7 7,7 5 3 7 4 E 1036,7 3,6 33 0,0
13.02.2019 08:00:00 -2,0 -2,4 -3,4 5,8 7,7 6 3 10 5 ENE 1036,4 0,1 0 0,0
13.02.2019 07:00:00 -1,6 -2,0 -2,5 5,9 7,7 7 4 10 5 ENE 1036,3 0,1 0 0,0
13.02.2019 06:00:00 -1,2 -1,8 -4,2 5,9 7,7 6 3 8 4 ENE 1036,3 0,1 0 0,0
13.02.2019 05:00:00 -0,7 -1,4 -5,6 6,0 7,7 5 3 8 5 NE 1036,1 3,6 0 0,0
13.02.2019 04:00:00 -0,6 -1,4 -3,7 6,1 7,7 3 1 6 4 NE 1036,4 6 0 0,0
13.02.2019 03:00:00 -0,4 -1,4 -4,1 6,1 7,7 4 2 6 3 NE 1036,6 7 0 0,0
13.02.2019 02:00:00 0,1 -1,3 -4,0 6,2 7,7 4 2 7 4 E 1036,6 12 0 0,0
13.02.2019 01:00:00 0,7 -0,8 -4,3 6,3 7,7 7 4 8 5 E 1036,6 18 0 0,0
13.02.2019 00:00:00 1,4 -0,8 -3,5 6,3 7,7 5 3 12 6 ESE 1036,8 39 0 0,0
12.02.2019 23:00:00 1,9 -1,2 -3,4 6,3 7,7 8 4 12 7 ESE 1036,9 27 0 0,0
12.02.2019 22:00:00 2,1 -0,5 -2,5 6,4 7,7 8 4 18 10 E 1036,9 25 0 0,0
12.02.2019 21:00:00 2,7 -0,4 -0,7 6,3 7,7 8 4 11 6 E 1037,0 45 0 0,0
12.02.2019 20:00:00 3,6 0,3 -1,2 6,2 7,7 8 4 10 5 ENE 1036,9 44 0 0,0
12.02.2019 19:00:00 4,5 1,0 1,2 6,1 7,7 9 5 15 8 ENE 1036,7 60 0 0,0
12.02.2019 18:00:00 6,4 2,3 4,2 6,0 7,7 9 5 13 7 ENE 1035,9 60 45 0,0
12.02.2019 17:00:00 7,7 2,2 8,6 5,9 7,7 10 6 15 8 NE 1036,0 20 22 0,0
12.02.2019 16:00:00 7,6 1,6 9,4 5,8 7,7 9 5 16 9 NE 1036,1 60 19 0,0
12.02.2019 15:00:00 8,3 1,9 10,9 5,8 7,7 8 4 15 8 WNW 1036,1 19 26 0,0
12.02.2019 14:00:00 8,4 1,8 9,8 5,7 7,7 3 1 12 6 ENE 1036,2 46 23 0,0
12.02.2019 13:00:00 8,6 3,6 12,8 5,8 7,7 5 3 10 6 W 1036,5 39 60 0,0
12.02.2019 12:00:00 6,5 3,3 12,0 5,8 7,7 5 3 8 5 SW 1037,1 20 60 0,0
12.02.2019 11:00:00 5,2 3,7 2,3 5,9 7,7 0 0 3 1 N 1037,1 11 52 0,0
12.02.2019 10:00:00 0,7 0,3 -1,1 6,0 7,7 0 0 3 2 N 1037,1 4,5 0 0,0
12.02.2019 09:00:00 -0,3 -0,7 -7,3 6,1 7,6 0 0 4 2 N 1036,7 4,6 24 0,0
12.02.2019 08:00:00 -2,3 -2,9 -7,3 6,2 7,7 4 2 5 3 W 1036,3 1,2 0 0,0
12.02.2019 07:00:00 -2,8 -3,3 -7,0 6,3 7,7 0 0 4 2 N 1036,0 0,1 0 0,0
12.02.2019 06:00:00 -1,3 -1,9 -6,9 6,4 7,6 0 0 0 0 N 1035,5 0,3 0 0,0
12.02.2019 05:00:00 -1,8 -2,6 -6,7 6,5 7,7 0 0 0 0 N 1035,4 0,2 0 0,0
12.02.2019 04:00:00 -0,7 -1,4 -6,4 6,5 7,6 0 0 6 3 N 1035,4 9 0 0,0
12.02.2019 03:00:00 -0,7 -1,5 -6,1 6,6 7,6 5 3 7 4 WSW 1035,3 6 0 0,0
12.02.2019 02:00:00 -0,2 -1,2 -5,5 6,7 7,6 0 0 4 2 N 1035,0 6 0 0,0
12.02.2019 01:00:00 0,4 -0,7 -3,8 6,7 7,6 5 3 9 5 NW 1034,8 12 0 0,0
12.02.2019 00:00:00 1,8 0,5 -3,4 6,8 7,6 6 3 9 5 NNW 1034,4 18 0 0,0
11.02.2019 23:00:00 2,3 1,0 -4,0 6,8 7,6 9 5 11 6 NW 1034,3 30 0 0,0
11.02.2019 22:00:00 2,5 0,9 -3,1 6,8 7,6 8 4 11 6 NNW 1033,4 35 0 0,0
11.02.2019 21:00:00 3,7 2,1 -2,1 6,8 7,6 9 5 12 6 NNW 1032,7 60 0 0,0
11.02.2019 20:00:00 4,9 1,9 1,7 6,8 7,6 9 5 16 9 N 1031,6 60 0 0,0
11.02.2019 19:00:00 6,6 2,7 4,6 6,7 7,6 14 8 20 11 N 1030,7 60 0 0,0
11.02.2019 18:00:00 7,4 3,4 5,9 6,7 7,6 11 6 19 11 N 1029,6 60 3 0,0
11.02.2019 17:00:00 8,5 5,1 6,8 6,6 7,6 12 7 27 15 NW 1028,6 55 18 0,0
11.02.2019 16:00:00 8,3 4,3 7,7 6,6 7,6 19 11 33 18 NW 1027,7 20 11 0,0
11.02.2019 15:00:00 8,6 4,4 9,2 6,5 7,6 23 12 36 19 NW 1026,9 48 1 0,0
11.02.2019 14:00:00 8,5 4,5 9,0 6,5 7,6 24 13 37 20 NW 1026,2 34 15 0,0
11.02.2019 13:00:00 7,8 5,3 7,1 6,5 7,6 26 14 36 20 WNW 1025,7 60 1 0,0
11.02.2019 12:00:00 6,4 4,2 4,7 6,5 7,6 26 14 34 19 W 1025,0 25 13 0,0
11.02.2019 11:00:00 4,9 3,2 4,2 6,6 7,6 21 11 31 17 W 1024,4 47 0 0,0
11.02.2019 10:00:00 4,1 2,4 2,4 6,7 7,6 21 12 29 16 WSW 1023,5 52 0 0,0
11.02.2019 09:00:00 2,7 1,5 1,0 6,8 7,6 16 9 22 12 WSW 1022,6 45 7 0,0
11.02.2019 08:00:00 2,0 0,8 0,3 6,8 7,6 18 10 24 13 SW 1021,6 46 0 0,0
11.02.2019 07:00:00 1,9 0,6 -0,2 6,9 7,6 17 9 23 12 WSW 1020,5 57 0 0,0
11.02.2019 06:00:00 1,7 0,4 -0,1 7,0 7,6 14 8 27 14 WSW 1020,5 56 0 0,0
11.02.2019 05:00:00 2,0 0,5 0,6 7,0 7,5 21 11 29 16 WSW 1019,4 56 0 0,0
11.02.2019 04:00:00 2,4 0,9 0,7 7,1 7,5 22 12 29 16 WSW 1019,0 52 0 0,0
11.02.2019 03:00:00 2,2 0,7 0,6 7,2 7,5 16 9 27 15 WSW 1019,0 60 0 0,0
11.02.2019 02:00:00 2,6 0,8 1,0 7,2 7,5 18 10 33 18 WSW 1018,4 60 0 0,0
11.02.2019 01:00:00 3,2 1,4 1,5 7,3 7,5 22 12 31 17 WSW 1017,3 60 0 0,0
11.02.2019 00:00:00 3,7 1,4 2,1 7,4 7,6 21 12 40 22 W 1016,5 60 0 0,0
10.02.2019 23:00:00 4,3 2,0 2,7 7,4 7,5 26 14 40 22 W 1015,5 60 0 0,0
10.02.2019 22:00:00 4,6 1,6 3,2 7,5 7,5 31 17 46 25 W 1014,6 60 0 0,0
10.02.2019 21:00:00 5,4 2,0 3,4 7,5 7,5 33 18 48 26 W 1013,5 60 0 0,0
10.02.2019 20:00:00 5,6 2,4 3,3 7,5 7,5 28 15 40 21 W 1012,4 60 0 0,0
10.02.2019 19:00:00 5,3 3,3 3,7 7,5 7,5 23 12 40 22 W 1010,7 60 0 0,0
10.02.2019 18:00:00 5,4 3,4 4,0 7,5 7,5 28 15 48 26 W 1009,2 60 0 1,2

tt = Température de l'air
td = dewpoint
tt 5cm = Température de l'air 5cm
tt -20cm = Température de l'air -20cm
tt -100cm = Température de l'air -100cm
ff = Vitesse du vent
fx = gusts
dd = Direction du vent
ppp = reduced air pressure
vv = visibility
sd = Ensoleillement
rr = Quantités de précipitations

stations d'obs. à proximité